sat.trackr.live / text

‹ back to catalog

STARLINK-1305

NORAD 45377 · 2020-019T

PAYLOAD ACTIVE UNKNOWN

§ Identity

Operator
Country
US
Launch date
2020-03-18
Launch site
AFETR
Launch vehicle
Mass (kg)
RCS (m²)

Purposes: comms

External: N2YO · Heavens-Above · Gunter

§ Orbital elements

Epoch: 2026-05-25T02:31:44.616864Z

Period
91.75 min
Inclination
53.0378°
Eccentricity
0.0001630
Mean motion
15.69533030 rev/d
Perigee alt
359.1 km
Apogee alt
361.3 km
Semi-major
6,738.4 km
B*
4.4756e-4
RAAN
119.5656°
Arg perigee
130.0832°
Mean anomaly
230.0327°
Rev number
34,215

§ Raw data

STARLINK-13051 45377U 20019T   26145.10537751  .00053593  00000+0  44756-3 0  99982 45377  53.0378 119.5656 0001630 130.0832 230.0327 15.69533030342151

JSON: /api/v1/satellites/45377 · /tle

For live sub-satellite position, see the globe view (requires WebGL).

§ Visibility from observer

Set your observer location to see the next 7 days of passes ≥ 10°. The values pass through the URL so the page stays shareable.

No JS? Fill the form by hand. The geolocation button needs JavaScript.